Temp
5 6 5 5 6 5 5 5 5 5 5 5 5 4 3 3 2 3 3 3 3 2 3 4 4 4 4 4 4 4 5 5 5 5 4 5 5 4 4 4 5 4 5 5
5 6 6 6 6 5 5 5 5 5 5 5 4 4 3 3 3 2 2 2 2 3 3 3 3 4 4 4 4 4 4 5 5 5 4 5 4 4 4 5 3 4 4 5
5 6 5 6 5 5 5 4 4 4 5 5 4 3 3 2 2 1 1 1 1 2 3 3 3 3 3 3 3 3 3 4 4 4 3 4 4 3 4 5 5 4 4 4
6 5 5 6 5 5 6 5 4 4 4 4 4 3 2 2 3 2 2 1 2 2 2 3 2 2 2 2 3 4 4 4 4 4 4 3 4 3 3 4 4 4 4 4
6 6 6 6 5 5 6 5 5 5 4 4 4 4 2 3 3 2 2 2 2 2 2 2 2 2 2 2 3 4 4 4 4 4 4 5 4 3 2 4 3 3 3 4
6 6 6 6 5 5 5 5 6 5 4 3 4 4 3 2 1 1 2 2 1 2 2 3 1 1 2 3 4 4 4 4 5 5 3 3 2 2 2 2 1 3 3 3
6 5 5 6 6 5 5 6 4 2 1 0 4 3 2 1 0 0 1 2 1 1 2 2 1 2 2 3 4 4 5 5 5 4 2 2 3 1 1 1 2 2 3 3
6 5 5 5 5 5 4 4 3 -2 -2 -1 4 3 2 1 1 0 1 1 1 1 1 1 1 2 3 3 4 4 5 4 3 3 3 3 4 3 2 3 3 3 2 2
5 5 5 5 5 5 4 4 3 3 2 1 3 2 1 2 1 1 1 1 1 1 2 2 2 3 4 4 4 5 5 3 3 3 2 2 2 2 3 2 2 2 2 2
5 5 5 5 5 5 4 4 4 3 -2 0 3 3 3 3 2 2 1 2 2 2 2 2 3 3 4 4 4 4 4 3 3 3 3 2 2 2 2 2 1 2 2 1
5 5 5 5 5 5 5 4 4 4 4 0 0 2 3 3 3 2 2 2 1 1 2 2 2 2 3 3 3 2 2 2 2 2 2 2 3 2 2 1 1 1 1 1
5 5 5 5 5 5 5 4 4 4 4 4 3 3 3 3 3 3 3 2 2 0 2 2 2 2 1 3 2 1 2 2 2 2 2 1 1 1 1 1 1 1 1 1
5 4 4 4 4 5 4 4 4 4 3 4 2 4 3 3 4 3 2 2 1 1 1 1 1 1 1 1 2 2 1 1 2 1 1 1 1 1 1 1 2 1 1 1
5 5 6 5 5 4 4 4 4 3 3 4 4 4 4 4 4 4 3 2 2 1 0 0 1 1 1 1 1 1 1 1 1 1 1 1 1 1 1 1 0 0 1 1
5 5 5 6 5 4 4 4 4 3 4 4 4 4 4 4 4 4 4 3 3 2 1 1 1 1 1 1 1 1 1 1 1 1 1 0 1 1 1 1 1 1 1 1
5 5 5 6 5 5 5 5 4 4 4 3 4 5 4 4 4 4 4 4 3 3 3 3 2 2 2 1 1 1 1 1 1 1 1 1 1 1 1 1 1 1 1 0
5 5 4 5 5 4 5 6 6 5 5 5 4 5 5 4 5 5 4 4 4 4 3 3 3 3 3 2 2 1 1 1 1 1 1 1 1 1 1 1 1 1 0 -0
5 4 4 5 5 3 6 6 6 6 6 5 5 5 4 4 5 5 4 4 4 4 4 3 3 3 3 2 2 2 1 1 1 1 1 0 0 0 0 0 0 -0 -0 -1
4 4 4 4 4 5 6 6 6 6 6 5 5 4 4 4 4 5 5 4 4 4 4 3 3 3 3 3 2 2 2 2 1 1 1 1 1 1 1 0 -0 -1 -1 -1
3 2 3 2 3 2 6 6 6 5 6 6 5 5 5 4 5 5 5 5 4 4 4 3 3 3 3 3 3 2 2 2 2 2 1 1 1 1 0 -0 -1 -1 -1 -2
2 1 2 2 3 6 7 6 5 5 7 6 6 5 5 5 4 4 4 5 4 4 4 3 3 3 3 3 2 2 2 2 2 1 1 1 1 1 0 -0 -1 -1 -1 -2
6 2 2 1 2 3 7 6 6 7 7 6 6 5 5 5 5 4 4 4 4 4 4 3 3 3 2 2 2 2 2 2 1 1 1 1 0 0 0 -0 -1 -2 -2 -2
5 6 7 6 7 7 7 7 6 6 6 6 6 5 5 4 4 4 4 3 3 3 3 3 3 3 2 2 2 2 1 1 1 1 1 0 0 0 -0 -0 -1 -2 -2 -3
5 5 6 6 7 7 7 7 6 6 6 6 5 5 5 4 4 4 3 3 3 3 3 2 2 2 2 2 2 2 1 1 1 0 0 -0 -0 -0 -0 -1 -1 -2 -3 -3
6 6 5 6 7 7 6 7 6 5 5 6 5 5 4 4 4 3 3 3 2 2 2 2 2 2 2 1 2 2 1 0 0 -0 -0 -0 -1 -1 -1 -1 -2 -2 -3 -3
5 5 6 6 7 7 7 6 6 6 6 6 5 5 4 4 3 3 3 3 2 2 2 2 2 1 1 1 1 1 0 0 -0 -0 -1 -1 -1 -1 -1 -1 -2 -3 -3 -4
Height
3132 3132 3130 3130 3129 3128 3126 3124 3122 3120 3119 3116 3115 3111 3107 3104 3103 3101 3098 3093 3090 3088 3089 3092 3094 3095 3099 3102 3104 3109 3111 3110 3113 3117 3120 3122 3128 3131 3133 3135 3141 3144 3146 3149
3132 3130 3130 3129 3128 3126 3124 3121 3119 3117 3114 3115 3113 3110 3105 3102 3102 3098 3090 3084 3081 3081 3082 3085 3089 3091 3092 3095 3099 3103 3105 3106 3109 3111 3112 3119 3126 3129 3132 3134 3137 3140 3143 3146
3128 3129 3128 3128 3126 3123 3122 3119 3117 3117 3114 3112 3111 3108 3104 3101 3100 3095 3088 3081 3076 3072 3074 3078 3083 3086 3088 3090 3095 3099 3101 3103 3105 3106 3105 3102 3119 3124 3127 3129 3133 3137 3142 3143
3127 3126 3127 3126 3124 3122 3119 3118 3116 3114 3114 3112 3111 3108 3104 3101 3097 3092 3084 3078 3072 3068 3067 3070 3077 3082 3084 3085 3090 3095 3097 3100 3101 3105 3106 3108 3113 3118 3123 3127 3130 3135 3138 3139
3126 3125 3124 3123 3122 3120 3118 3114 3113 3112 3112 3112 3110 3107 3102 3100 3096 3089 3082 3075 3069 3064 3064 3065 3073 3079 3082 3084 3089 3092 3095 3099 3101 3103 3102 3103 3111 3110 3119 3124 3127 3130 3133 3136
3123 3123 3122 3122 3120 3118 3116 3113 3110 3110 3111 3111 3109 3107 3103 3100 3094 3088 3082 3075 3068 3065 3064 3065 3070 3078 3080 3086 3089 3091 3095 3097 3098 3099 3101 3105 3110 3102 3113 3116 3123 3127 3127 3128
3120 3120 3121 3120 3118 3116 3116 3112 3111 3114 3113 3112 3108 3106 3104 3100 3094 3088 3081 3076 3071 3068 3067 3069 3073 3078 3080 3084 3087 3090 3093 3094 3094 3094 3097 3096 3100 3103 3109 3114 3118 3120 3124 3123
3118 3119 3118 3118 3117 3116 3113 3114 3114 3122 3120 3111 3106 3107 3106 3100 3094 3088 3084 3079 3075 3073 3072 3071 3073 3077 3080 3084 3085 3088 3089 3090 3090 3091 3089 3088 3097 3095 3102 3107 3110 3116 3117 3117
3117 3117 3116 3116 3115 3116 3114 3113 3115 3114 3113 3112 3108 3108 3105 3101 3097 3091 3086 3083 3080 3079 3077 3076 3079 3080 3082 3082 3084 3086 3087 3088 3087 3086 3089 3092 3096 3098 3103 3107 3110 3111 3111 3112
3114 3115 3114 3115 3114 3114 3113 3114 3114 3113 3118 3115 3108 3106 3104 3101 3097 3092 3088 3085 3083 3081 3081 3081 3082 3082 3083 3085 3086 3086 3088 3089 3090 3091 3094 3096 3099 3103 3107 3109 3108 3106 3109 3111
3112 3113 3115 3114 3113 3112 3113 3112 3112 3112 3112 3114 3112 3106 3103 3101 3098 3095 3090 3087 3086 3084 3083 3084 3085 3085 3086 3086 3087 3088 3090 3092 3093 3095 3096 3097 3099 3103 3105 3105 3107 3108 3110 3112
3109 3110 3111 3112 3111 3111 3111 3110 3111 3110 3111 3110 3109 3105 3102 3101 3098 3097 3093 3090 3089 3087 3087 3087 3087 3088 3089 3089 3090 3092 3093 3095 3095 3095 3096 3098 3101 3104 3105 3106 3108 3108 3109 3110
3107 3107 3108 3109 3111 3109 3108 3108 3109 3109 3108 3106 3107 3104 3100 3099 3099 3096 3094 3091 3091 3091 3090 3089 3090 3091 3092 3093 3093 3093 3095 3096 3096 3098 3100 3103 3104 3105 3104 3107 3107 3106 3106 3106
3105 3104 3103 3103 3104 3105 3106 3105 3105 3106 3106 3104 3102 3101 3099 3098 3098 3097 3095 3093 3093 3093 3092 3092 3092 3092 3093 3094 3095 3097 3097 3097 3098 3100 3101 3103 3104 3105 3105 3107 3107 3106 3104 3105
3102 3101 3100 3100 3100 3100 3101 3101 3102 3101 3102 3101 3100 3099 3098 3097 3097 3096 3095 3094 3094 3093 3092 3093 3093 3094 3094 3095 3097 3098 3099 3099 3100 3101 3103 3103 3104 3105 3106 3105 3104 3101 3102 3100
3098 3098 3098 3098 3096 3096 3095 3095 3095 3095 3096 3096 3096 3095 3096 3095 3095 3095 3094 3094 3094 3094 3093 3093 3094 3094 3094 3094 3095 3096 3098 3100 3102 3102 3103 3103 3104 3104 3103 3100 3097 3098 3097 3096
3094 3095 3095 3094 3093 3093 3092 3088 3088 3089 3090 3091 3090 3092 3092 3093 3093 3093 3093 3093 3093 3093 3094 3094 3094 3095 3095 3096 3096 3097 3097 3098 3099 3099 3100 3101 3101 3099 3098 3096 3096 3095 3093 3092
3089 3091 3092 3092 3092 3094 3087 3085 3085 3085 3086 3086 3087 3088 3090 3091 3091 3091 3091 3091 3092 3093 3093 3094 3095 3095 3095 3096 3096 3097 3097 3098 3098 3098 3098 3098 3097 3097 3096 3095 3093 3091 3090 3090
3084 3086 3087 3089 3088 3086 3083 3082 3083 3082 3082 3082 3083 3085 3087 3088 3088 3088 3088 3089 3090 3091 3092 3093 3094 3094 3095 3095 3096 3096 3096 3097 3097 3097 3097 3097 3096 3095 3093 3090 3088 3088 3087 3084
3078 3081 3085 3085 3085 3083 3078 3079 3080 3081 3077 3076 3079 3080 3082 3084 3084 3086 3086 3087 3088 3089 3090 3092 3093 3093 3094 3094 3095 3096 3096 3097 3097 3096 3096 3095 3093 3091 3089 3087 3085 3084 3082 3081
3070 3074 3075 3079 3080 3075 3075 3076 3077 3080 3080 3074 3076 3077 3079 3079 3082 3083 3083 3084 3085 3086 3087 3089 3090 3091 3092 3093 3093 3094 3095 3095 3094 3094 3093 3092 3091 3089 3087 3085 3083 3081 3079 3076
3057 3063 3067 3074 3075 3071 3068 3071 3073 3073 3072 3073 3073 3074 3075 3076 3077 3079 3080 3081 3082 3083 3084 3085 3087 3088 3089 3090 3091 3092 3093 3092 3092 3092 3091 3089 3088 3086 3084 3081 3079 3076 3075 3072
3051 3053 3054 3058 3058 3061 3063 3065 3067 3068 3069 3070 3071 3072 3072 3073 3074 3075 3076 3077 3078 3079 3080 3081 3083 3084 3085 3086 3088 3089 3090 3090 3089 3089 3088 3086 3085 3083 3081 3078 3076 3074 3071 3070
3042 3045 3048 3051 3054 3056 3059 3061 3062 3064 3065 3065 3067 3068 3068 3069 3070 3071 3072 3073 3074 3075 3077 3077 3078 3079 3081 3082 3083 3084 3085 3085 3086 3085 3085 3083 3082 3080 3078 3076 3073 3071 3068 3066
3034 3037 3039 3043 3047 3049 3053 3055 3057 3058 3060 3061 3062 3063 3064 3065 3065 3066 3067 3067 3069 3070 3072 3073 3074 3076 3077 3078 3079 3080 3080 3080 3081 3081 3080 3079 3078 3076 3074 3072 3070 3067 3065 3063
3019 3027 3030 3033 3040 3043 3047 3051 3052 3052 3053 3055 3057 3058 3058 3059 3060 3060 3061 3062 3063 3064 3066 3068 3069 3071 3073 3073 3074 3074 3075 3075 3076 3076 3076 3075 3074 3073 3071 3068 3066 3064 3061 3058
Wind_Speed
9 9 8 8 13 9 14 15 18 15 11 12 11 14 18 16 10 18 25 25 22 20 29 31 19 13 19 25 28 23 27 29 27 34 34 31 28 27 27 26 29 28 21 19
7 12 10 11 10 10 11 12 15 20 8 13 9 19 16 19 17 29 34 29 23 19 28 30 16 19 16 22 24 21 24 24 26 33 40 36 22 27 28 28 27 27 22 19
10 10 9 14 7 11 13 9 17 13 10 5 4 5 10 17 20 29 28 26 25 19 22 34 23 16 20 13 23 26 31 26 23 26 32 20 23 25 28 30 29 29 20 17
7 8 10 10 6 13 12 12 6 9 11 3 8 4 13 14 29 31 26 25 22 15 12 33 28 15 10 11 11 15 16 20 19 22 27 27 24 26 30 30 25 22 20 19
4 6 11 6 7 10 11 17 6 8 8 8 9 5 7 16 28 29 27 26 20 11 3 14 23 23 14 11 6 10 12 11 13 13 20 25 33 26 29 23 20 23 23 23
5 6 4 8 7 6 15 9 2 2 3 2 7 5 6 20 25 29 28 24 19 9 5 3 19 15 14 10 5 7 8 5 4 4 10 28 32 35 32 29 22 18 18 29
2 8 8 4 5 6 8 12 5 4 2 4 9 6 7 18 23 24 28 22 17 8 9 13 16 9 11 8 6 5 6 7 6 3 6 22 4 17 17 17 11 11 16 17
2 5 7 6 6 3 8 11 3 4 0 5 5 5 8 15 26 19 23 20 17 10 9 8 15 14 10 10 5 6 10 6 8 7 11 8 5 9 12 8 6 15 21 22
5 4 4 3 4 3 2 4 6 1 4 3 1 1 4 20 18 17 20 13 15 13 14 18 16 13 12 9 9 7 7 5 9 5 11 11 9 9 11 17 13 17 18 21
5 3 3 5 2 2 4 4 2 2 2 3 2 2 11 19 20 20 16 10 11 12 11 13 13 10 9 9 8 8 10 9 10 11 10 8 10 13 14 12 6 4 5 7
5 6 4 5 4 3 2 3 2 2 2 3 2 4 11 16 17 18 13 11 11 10 10 12 11 12 10 10 11 12 11 10 9 8 10 10 13 14 14 12 6 2 4 5
5 4 4 7 7 7 7 7 4 3 3 3 4 4 9 14 15 14 12 10 8 10 11 11 12 11 11 10 11 12 13 11 9 9 9 9 11 12 9 5 5 5 5 3
5 6 4 3 9 8 7 7 5 6 4 5 1 4 7 13 16 12 9 5 5 8 10 12 11 13 16 14 9 8 12 11 10 11 12 9 5 3 2 3 4 4 2 5
6 9 9 9 6 3 8 8 9 9 6 4 5 4 6 13 15 9 7 6 4 3 5 7 11 11 13 9 12 7 9 8 8 6 4 0 1 3 3 4 5 6 8 10
10 7 9 12 13 13 17 19 18 21 18 10 11 5 8 13 12 6 3 3 4 5 7 5 10 9 6 8 9 9 7 4 3 1 2 2 4 4 6 7 10 12 12 12
14 7 7 7 5 7 11 14 17 20 20 22 20 16 10 8 9 6 3 1 3 5 6 6 6 7 7 6 5 4 4 3 2 0 2 3 5 6 8 10 11 14 15 17
15 10 5 4 4 6 13 6 11 13 17 14 21 13 9 7 8 5 6 5 4 5 5 4 4 3 3 4 3 2 2 2 2 3 3 4 6 9 11 13 15 17 17 18
14 13 8 4 5 3 3 5 8 8 7 14 16 15 11 11 9 5 7 7 6 6 5 4 3 2 2 1 2 2 2 2 3 4 6 7 8 9 12 14 15 14 13 13
18 15 6 4 7 9 14 13 11 7 8 14 13 16 15 13 11 8 7 8 8 8 7 6 5 4 3 1 0 2 4 4 4 4 5 6 9 12 14 15 14 13 13 13
23 21 17 11 5 7 5 8 7 9 12 11 13 15 16 16 15 7 8 8 9 10 9 8 8 7 6 5 3 2 2 3 4 5 8 9 11 14 15 15 15 14 14 14
31 28 28 18 10 10 14 12 9 6 5 3 7 9 12 15 12 11 10 9 10 12 11 11 11 11 11 9 8 7 5 6 6 8 9 11 14 15 15 16 14 14 15 15
29 29 26 21 13 15 16 16 16 7 4 5 5 6 7 10 12 11 12 11 10 11 12 12 13 13 13 13 12 11 9 10 9 9 10 12 14 17 17 17 16 15 16 16
26 29 29 24 23 13 9 7 10 9 7 7 7 7 8 10 11 13 14 14 13 12 13 14 15 15 15 15 15 14 12 13 12 12 12 13 15 16 17 18 16 16 16 17
37 23 30 26 27 27 22 17 17 15 13 12 11 10 11 12 13 14 16 17 16 16 15 15 16 14 13 14 15 16 15 16 15 14 14 14 15 17 18 18 17 17 17 16
37 36 34 31 27 25 22 21 22 20 16 16 17 15 14 16 16 17 18 20 19 18 17 17 16 15 13 15 16 17 17 18 17 16 16 16 16 17 18 18 18 18 17 17
41 39 37 35 27 27 22 17 18 22 22 20 18 18 21 21 20 20 21 21 21 20 20 21 22 20 17 17 18 19 18 19 18 17 17 17 17 18 18 18 18 18 18 17
Wind_Direction
325 322 312 302 332 3 335 324 313 300 333 307 330 298 296 286 289 314 324 321 309 245 234 224 240 204 242 242 239 235 242 249 241 237 228 233 230 221 216 214 216 230 231 239
268 284 279 296 332 324 315 311 323 321 310 270 303 305 278 276 301 329 328 320 307 278 223 216 219 208 203 235 238 245 241 250 252 241 233 219 224 220 220 220 213 231 231 239
264 286 278 298 304 314 326 309 331 343 11 22 284 253 256 293 332 339 335 317 307 294 231 214 218 221 217 233 237 241 254 252 248 256 226 207 221 223 216 220 224 230 234 237
269 240 264 300 300 314 328 326 317 335 333 331 345 287 274 312 331 347 345 332 329 317 272 214 220 205 201 228 237 229 240 226 240 251 254 243 244 228 219 226 216 224 230 235
243 264 295 302 328 324 329 342 311 309 305 301 317 318 315 336 350 352 348 354 341 332 300 211 210 210 210 225 218 215 215 222 243 270 266 270 244 210 224 226 225 230 229 233
247 302 320 322 326 333 347 353 88 359 280 301 351 338 287 338 345 350 351 358 2 20 54 146 182 196 219 222 191 210 215 221 263 299 261 230 235 224 217 209 219 240 260 262
295 268 287 317 350 356 335 25 358 30 14 232 352 330 326 337 343 351 358 7 18 60 74 120 154 156 174 170 194 173 186 211 210 267 189 219 271 221 214 206 229 239 293 277
220 220 263 314 341 19 34 19 57 186 300 281 357 358 342 342 345 355 2 10 26 45 88 124 153 151 152 157 156 159 186 199 134 99 88 92 187 154 188 201 331 270 251 258
211 232 248 282 336 14 94 53 41 54 282 304 205 112 307 345 359 358 1 17 46 62 76 78 98 120 139 152 154 162 170 152 101 105 76 105 128 139 200 204 250 255 265 260
223 227 242 311 274 106 62 63 75 46 46 330 331 322 337 357 13 12 5 33 45 60 73 94 106 114 123 129 141 145 151 143 126 146 173 161 178 193 206 227 223 108 142 114
222 213 182 265 234 251 245 169 183 263 209 177 294 282 331 345 12 25 19 21 38 49 74 87 97 109 117 123 127 141 150 158 158 160 167 178 194 219 219 183 183 199 224 226
188 214 225 260 242 277 254 232 234 201 192 242 255 272 309 347 351 14 23 14 46 49 81 102 112 118 118 121 118 117 119 127 150 171 175 177 167 163 173 210 241 282 264 217
194 198 174 269 246 255 251 229 253 237 238 243 200 263 306 337 350 358 18 41 56 56 75 79 98 104 119 121 116 130 127 142 154 149 148 160 164 194 240 322 275 299 314 301
223 223 227 206 173 224 243 251 270 254 230 241 221 203 302 322 337 341 20 82 133 102 80 97 124 131 118 102 131 118 133 159 134 132 113 145 309 322 284 301 300 289 284 283
225 235 236 255 260 257 256 256 244 252 255 239 185 211 283 297 326 312 341 84 77 106 121 126 123 137 149 127 125 124 133 139 132 108 304 324 306 294 289 291 297 301 297 296
225 230 244 285 259 256 269 263 254 249 248 243 234 253 248 275 309 281 250 203 138 135 128 117 99 98 101 111 105 101 105 107 116 2 305 300 297 303 309 311 310 303 303 303
217 218 226 221 213 285 285 244 240 245 256 251 234 232 255 259 295 273 237 211 189 171 158 151 138 110 99 97 89 56 12 0 353 335 328 324 322 322 317 313 306 303 303 300
222 212 212 228 253 241 251 279 293 264 252 239 236 230 241 259 273 261 227 216 211 202 186 178 175 169 155 104 63 32 12 1 348 340 337 330 325 319 314 309 305 302 296 293
224 217 207 224 211 267 260 266 260 246 264 242 238 235 240 248 255 258 232 217 216 220 218 209 207 215 219 197 40 1 356 357 348 336 328 327 326 325 324 323 321 313 306 307
221 222 214 195 209 217 218 209 244 283 275 240 227 234 240 245 247 258 238 225 221 227 228 228 227 227 233 239 249 277 315 325 326 332 335 334 332 332 331 328 325 319 317 315
205 214 217 208 226 253 229 221 241 224 277 229 213 239 249 249 258 244 236 236 222 230 230 233 237 234 233 239 247 258 275 287 304 318 328 330 331 331 330 325 324 320 318 319
213 197 209 207 218 255 230 210 214 235 251 249 254 259 253 242 251 241 242 241 242 242 241 239 240 242 242 243 247 254 263 273 287 301 311 319 325 328 329 328 325 324 321 320
213 222 218 213 232 232 236 208 221 253 253 249 264 268 259 251 252 250 252 252 252 248 244 242 243 244 244 248 250 255 258 266 275 286 297 308 316 322 325 325 324 319 320 320
222 220 227 228 238 249 248 254 240 256 260 263 266 270 267 267 256 256 257 258 259 258 253 247 246 248 249 253 256 259 261 267 272 279 288 299 309 316 321 322 323 317 319 318
230 228 227 234 241 244 237 247 251 255 244 252 266 272 266 261 263 269 262 260 262 261 254 246 245 246 251 257 264 265 261 264 269 276 284 293 303 311 317 319 320 318 318 317
230 234 233 239 250 253 257 263 254 249 260 274 264 265 267 262 263 268 260 258 258 257 256 250 251 253 255 266 268 266 261 262 266 272 280 289 298 307 313 316 316 316 316 316